"Pseudo-MPEC" for P22fTJf

Created 2025 Oct 4 13:35:21 UT using Find_Orb

Click here for an explanation of pseudo-MPECs

 
 Astrometry: 
     P22fTJf* C2025 09 29.45970301 53 51.057-20 07 22.42   ~9TCZ 22.34wXNEOCPF52
     P22fTJf  C2025 09 29.47078201 53 50.585-20 07 46.15   ~9TCZ 21.93wXNEOCPF52
     P22fTJf  C2025 09 29.49295001 53 49.631-20 08 33.94   ~9TCZ 21.98wXNEOCPF52
     P22fTJf  C2025 09 29.54282001 53 47.508-20 10 19.92   ~9TMZ 21.66GVNEOCPF51
     P22fTJf  C2025 09 29.54363401 53 47.483-20 10 21.38   ~9TMZ 22.30GVNEOCPF51
     P22fTJf 1C2025 09 30.52879601 53 20.929-20 44 16.81   ~9UIo 22.70GVNEOCPT12
     P22fTJf 1C2025 09 30.53350601 53 20.719-20 44 26.03   ~9UIo 22.74GVNEOCPT12
     P22fTJf KC2025 10 02.36431501 52 27.167-21 41 52.22   ~A2AZ 22.48GVNEOCPV06
     P22fTJf KC2025 10 02.37225601 52 26.814-21 42 06.23   ~A2AZ 22.39GVNEOCPV06
     P22fTJf KC2025 10 02.38019801 52 26.454-21 42 20.09   ~A2AZ 22.68GVNEOCPV06

Station data:
(F51) Pan-STARRS 1, Haleakala  (N20.707234 W156.255910)  US/Hawaii.
   Observers J. Herman, T. Lowe, P. Minguez, A. Schultz, I. Smith. Measurers
   K. Chambers, T. de Boer, J. Fairlamb, H. Gao, M. Huber, C.-C. Lin, E.
   Magnier, Y. Ramanjooloo, R. Wainscoat, R. Weryk. 1.8-m Ritchey-Chrétien +
   CCD.
(F52) Pan-STARRS 2, Haleakala  (N20.707382 W156.255910)  US/Hawaii.
   Observers J. Herman, T. Lowe, P. Minguez, A. Schultz, I. Smith. Measurers
   K. Chambers, T. de Boer, J. Fairlamb, H. Gao, M. Huber, C.-C. Lin, E.
   Magnier, Y. Ramanjooloo, R. Wainscoat, R. Weryk. 1.8-m Ritchey-Chrétien +
   CCD.
(T12) Mauna Kea-UH/Tholen NEO Follow-Up (2.24-m)  (N19.822991 W155.469434)
   US/Hawaii.  Observer R. Weryk. 2.24-m f/10.1 University of Hawaii
   reflector.
(V06) Catalina Sky Survey-Kuiper  (N32.416871 W110.732550)  US/Arizona.
   Measurers T. Beuden, V. F. Carvajal, D. Fay, J. B. Fazekas, D. C. Fuls, A.
   R. Gibbs, A. D. Grauer, H. Gröller, J. K. Hogan, R. A. Kowalski, S. M.
   Larson, G. J. Leonard, D. Rankin, R. L. Seaman, F. C. Shelly, K. W.
   Wierzchoś. 1.55-m reflector + CCD.

Orbital elements:  P22fTJf
   Perihelion 2025 Jul 28.497700 +/- 0.025 TT = 11:56:41.2 (JD 2460884.997700)
Epoch 2025 Oct  2.0 TT = JDT 2460950.5   Earth MOID: 0.0774   Ma: 0.0861
M  33.615506765 +/- 0.35            (J2000 ecliptic)             AutoNEOCP
n   0.513195822 +/- 0.00535         Peri.  141.059656 +/- 0.048
a   1.545066967 +/- 0.0107          Node   166.497275 +/- 0.055
e   0.32620804 +/- 0.00468          Incl.   13.822252 +/- 0.13
P   1.921/701.473d         H 24.15  G  0.15   U  9.2
q 1.041053686 +/- 0.000234    Q 2.049080247 +/- 0.0215
From 10 observations 2025 Sept. 29-Oct. 2; mean residual 0".09
Residuals in arcseconds: 
250929 F52  .04-  .04-    250929 F51  .08+  .12+    251002 V06  .13-  .01-    
250929 F52  .03-  .14+    250930 T12  .04+  .05-    251002 V06  .13-  .04+    
250929 F52  .09-  .06-    250930 T12  .00   .04+    
250929 F51  .05-  .14-    251002 V06  .23-  .06+    

Ephemerides (geocentric):
Date (UTC) HH   RA             Dec           delta  r     elong  mag " sig PA
---- --------  ------------   ------------  ------ ------ -----  --- --------
2025 10 04 14  01 51 15.281   -22 41 33.52  .24497 1.2148 147.9 22.7 1.02 133
2025 10 04 15  01 51 13.874   -22 42 35.78  .24520 1.2150 147.9 22.7 1.04 133
2025 10 04 16  01 51 12.466   -22 43 37.85  .24542 1.2152 147.9 22.7 1.06 133
2025 10 04 17  01 51 11.056   -22 44 39.71  .24565 1.2153 147.9 22.7 1.08 133
2025 10 04 18  01 51 09.644   -22 45 41.38  .24587 1.2155 147.9 22.7 1.10 132
2025 10 04 19  01 51 08.230   -22 46 42.85  .24610 1.2157 147.9 22.7 1.12 132
2025 10 04 20  01 51 06.815   -22 47 44.12  .24633 1.2159 147.9 22.7 1.15 132
2025 10 04 21  01 51 05.398   -22 48 45.20  .24655 1.2161 147.9 22.7 1.17 132
2025 10 04 22  01 51 03.979   -22 49 46.08  .24678 1.2162 147.9 22.7 1.19 132
2025 10 04 23  01 51 02.559   -22 50 46.76  .24700 1.2164 147.9 22.7 1.21 131
2025 10 05 00  01 51 01.137   -22 51 47.24  .24723 1.2166 147.9 22.7 1.23 131
2025 10 05 01  01 50 59.713   -22 52 47.53  .24746 1.2168 147.9 22.7 1.26 131
2025 10 05 02  01 50 58.288   -22 53 47.63  .24768 1.2170 147.9 22.7 1.28 131
2025 10 05 03  01 50 56.861   -22 54 47.53  .24791 1.2172 147.9 22.7 1.30 131
2025 10 05 04  01 50 55.433   -22 55 47.24  .24814 1.2173 147.9 22.7 1.33 131
2025 10 05 05  01 50 54.003   -22 56 46.75  .24837 1.2175 147.9 22.7 1.35 130
2025 10 05 06  01 50 52.571   -22 57 46.06  .24859 1.2177 147.8 22.7 1.37 130
2025 10 05 07  01 50 51.138   -22 58 45.19  .24882 1.2179 147.8 22.7 1.40 130
2025 10 05 08  01 50 49.703   -22 59 44.12  .24905 1.2181 147.8 22.7 1.42 130
2025 10 05 09  01 50 48.267   -23 00 42.85  .24928 1.2182 147.8 22.7 1.45 130
2025 10 05 10  01 50 46.829   -23 01 41.39  .24950 1.2184 147.8 22.7 1.47 130
2025 10 05 11  01 50 45.390   -23 02 39.75  .24973 1.2186 147.8 22.7 1.50 130
2025 10 05 12  01 50 43.949   -23 03 37.90  .24996 1.2188 147.8 22.7 1.52 130
2025 10 05 13  01 50 42.506   -23 04 35.87  .25019 1.2190 147.8 22.7 1.55 130
2025 10 05 14  01 50 41.063   -23 05 33.65  .25042 1.2191 147.8 22.8 1.57 129
2025 10 05 15  01 50 39.617   -23 06 31.23  .25065 1.2193 147.8 22.8 1.60 129
2025 10 05 16  01 50 38.171   -23 07 28.62  .25088 1.2195 147.8 22.8 1.62 129
2025 10 05 17  01 50 36.722   -23 08 25.82  .25110 1.2197 147.8 22.8 1.65 129
2025 10 05 18  01 50 35.273   -23 09 22.83  .25133 1.2199 147.8 22.8 1.68 129
2025 10 05 19  01 50 33.822   -23 10 19.66  .25156 1.2201 147.8 22.8 1.70 129
2025 10 05 20  01 50 32.369   -23 11 16.29  .25179 1.2202 147.8 22.8 1.73 129
2025 10 05 21  01 50 30.915   -23 12 12.73  .25202 1.2204 147.8 22.8 1.76 129
2025 10 05 22  01 50 29.460   -23 13 08.98  .25225 1.2206 147.7 22.8 1.78 129
2025 10 05 23  01 50 28.004   -23 14 05.05  .25248 1.2208 147.7 22.8 1.81 129
2025 10 06 00  01 50 26.546   -23 15 00.92  .25271 1.2210 147.7 22.8 1.84 129
2025 10 06 01  01 50 25.086   -23 15 56.61  .25294 1.2212 147.7 22.8 1.87 129
2025 10 06 02  01 50 23.626   -23 16 52.11  .25317 1.2213 147.7 22.8 1.90 129
2025 10 06 03  01 50 22.164   -23 17 47.42  .25340 1.2215 147.7 22.8 1.92 129
2025 10 06 04  01 50 20.700   -23 18 42.55  .25363 1.2217 147.7 22.8 1.95 129
2025 10 06 05  01 50 19.236   -23 19 37.49  .25386 1.2219 147.7 22.8 1.98 129
2025 10 06 06  01 50 17.770   -23 20 32.24  .25409 1.2221 147.7 22.8 2.01 128
2025 10 06 07  01 50 16.303   -23 21 26.80  .25433 1.2222 147.7 22.8 2.04 128
2025 10 06 08  01 50 14.834   -23 22 21.18  .25456 1.2224 147.7 22.8 2.07 128
2025 10 06 09  01 50 13.365   -23 23 15.37  .25479 1.2226 147.7 22.8 2.10 128
2025 10 06 10  01 50 11.894   -23 24 09.38  .25502 1.2228 147.7 22.8 2.13 128
2025 10 06 11  01 50 10.421   -23 25 03.20  .25525 1.2230 147.7 22.8 2.16 128
2025 10 06 12  01 50 08.948   -23 25 56.84  .25548 1.2232 147.7 22.8 2.19 128
2025 10 06 13  01 50 07.473   -23 26 50.29  .25572 1.2233 147.6 22.8 2.22 128